FW5955 Weather Reports


time (UTC)temp
C
wind
direction
speed
KPH
gust
KPH
rain 1hr
cm
rain 24hr
cm
rain mn
cm
humidity
%
barometer
mb
20260905204530 15 143 6.4 24.1 0.00 0.15 0.15 91 1001.4
20260905203032 15 357 6.4 24.1 0.00 0.15 0.15 91 1001.2
20260905201527 15 70 4.8 19.3 0.00 0.15 0.15 91 1001.1
20260905200035 15 59 6.4 17.7 0.03 0.15 0.15 91 1001.1
20260905194522 14 195 3.2 19.3 0.05 0.15 0.15 92 1000.9
20260905193019 14 36 6.4 20.9 0.05 0.15 0.15 92 1000.7
20260905191516 14 74 6.4 32.2 0.05 0.15 0.15 92 1000.6
20260905190014 15 27 4.8 25.7 0.03 0.15 0.15 91 1000.6
20260905184512 15 108 4.8 19.3 0.00 0.13 0.13 91 1000.5
20260905183010 15 53 8.0 22.5 0.00 0.13 0.13 91 1000.2
20260905181508 15 210 4.8 24.1 0.00 0.13 0.13 90 1000.1
20260905180008 15 284 4.8 33.8 0.00 0.13 0.13 90 1000.0
20260905174506 15 241 4.8 25.7 0.00 0.13 0.13 89 999.9
20260905173007 15 77 6.4 29.0 0.00 0.13 0.13 90 999.9
20260905171511 15 35 8.0 22.5 0.00 0.13 0.13 91 999.6
20260905170003 16 70 8.0 17.7 0.00 0.13 0.13 91 999.4
20260905164502 16 99 8.0 29.0 0.00 0.13 0.13 91 999.3
20260905163001 16 32 9.7 29.0 0.00 0.13 0.13 91 999.1
20260905161609 17 85 6.4 24.1 0.00 0.13 0.13 90 999.0
20260905160100 17 48 6.4 27.4 0.00 0.13 0.13 88 998.9
20260905154600 17 228 6.4 32.2 0.00 0.15 0.13 88 998.9
20260905153059 16 305 8.0 29.0 0.00 0.15 0.13 89 998.8
20260905151558 16 347 6.4 17.7 0.00 0.15 0.13 89 998.9
20260905150058 16 30 4.8 17.7 0.00 0.15 0.13 89 999.0
20260905144558 16 36 3.2 14.5 0.00 0.36 0.13 89 999.2
20260905143057 17 20 4.8 14.5 0.00 0.36 0.13 89 999.1
20260905141556 17 188 3.2 25.7 0.00 0.36 0.13 90 999.1
20260905140053 16 223 4.8 24.1 0.00 0.36 0.13 90 999.0
20260905134557 16 329 3.2 14.5 0.00 0.43 0.13 91 998.8
20260905133052 16 90 4.8 24.1 0.00 0.43 0.13 92 998.7
20260905131553 16 184 3.2 24.1 0.00 0.43 0.13 93 998.6
20260905130050 16 49 3.2 16.1 0.00 0.43 0.13 93 998.6
20260905124550 16 79 6.4 20.9 0.03 0.79 0.13 93 998.6
20260905123048 16 290 6.4 16.1 0.08 0.79 0.13 93 998.7
20260905121548 16 342 3.2 22.5 0.08 0.79 0.13 94 998.5
20260905120047 16 257 3.2 14.5 0.05 0.76 0.10 94 998.1
20260905114559 15 108 1.6 6.4 0.05 0.86 0.10 94 998.1
20260905113046 15 255 1.6 8.0 0.00 0.79 0.05 93 998.0
20260905111547 16 238 1.6 9.7 0.00 0.79 0.05 94 998.1
20260905110046 15 37 1.6 12.9 0.00 0.79 0.05 94 997.8
20260905104549 15 57 3.2 14.5 0.00 0.89 0.05 94 997.8
20260905103047 15 261 1.6 8.0 0.00 0.89 0.05 94 997.7
20260905101544 15 359 1.6 9.7 0.00 0.89 0.05 94 997.8
20260905100044 15 264 0.0 9.7 0.00 0.89 0.05 94 997.8
20260905094558 15 332 0.0 6.4 0.00 0.99 0.05 94 997.7
20260905093044 15 226 0.0 6.4 0.00 0.99 0.05 94 997.8
20260905091545 15 15 0.0 8.0 0.00 0.99 0.05 94 997.8
20260905090039 15 323 1.6 6.4 0.03 0.99 0.05 94 997.8
20260905084542 15 266 0.0 6.4 0.03 1.42 0.05 94 997.8
20260905083035 15 128 1.6 8.0 0.05 1.42 0.05 93 997.7
20260905081534 16 250 1.6 9.7 0.03 1.42 0.03 94 997.7
20260905080048 16 42 0.0 6.4 0.03 1.42 0.03 94 997.7
20260905074531 16 260 0.0 1.6 0.03 1.65 0.03 94 997.6
20260905073040 16 261 0.0 1.6 0.00 1.65 0.00 93 997.7
20260905071530 16 273 1.6 4.8 0.00 1.65 0.00 93 997.8
20260905070039 16 263 0.0 4.8 0.00 1.65 0.00 93 997.8
20260905064528 16 263 1.6 3.2 0.00 1.65 0.00 93 997.9
20260905063025 16 237 0.0 3.2 0.00 1.65 0.00 93 998.1
20260905061536 16 252 0.0 0.0 0.00 1.65 0.00 93 998.2
20260905060022 16 252 0.0 1.6 0.00 1.65 0.00 93 998.4
20260905054520 16 296 0.0 3.2 0.00 1.68 0.00 93 998.7
20260905053021 16 351 0.0 3.2 0.00 1.68 0.00 93 998.7
20260905051516 16 320 0.0 8.0 0.00 1.68 0.00 93 998.7
20260905050015 16 267 1.6 8.0 0.00 1.68 0.00 93 998.8
20260905044517 17 345 0.0 4.8 0.00 1.68 0.00 93 998.9
20260905043012 17 258 0.0 3.2 0.00 1.68 0.00 93 999.0
20260905041512 17 283 0.0 4.8 0.00 1.68 0.00 93 999.1
20260905040014 17 255 0.0 4.8 0.00 1.68 0.00 93 999.4
20260905034510 17 253 0.0 1.6 0.00 1.73 0.00 94 999.6
20260905033004 17 47 0.0 3.2 0.00 1.73 0.00 94 999.9
20260905031502 16 316 0.0 0.0 0.00 1.73 0.00 93 1000.2
20260905024559 17 316 0.0 1.6 0.00 1.75 1.73 93 1000.1
20260905023102 17 260 0.0 4.8 0.00 1.75 1.73 93 1000.4
20260905021554 17 285 0.0 3.2 0.00 1.75 1.73 93 1000.7
20260905020051 17 351 0.0 6.4 0.00 1.75 1.73 93 1000.9
20260905014549 17 259 0.0 4.8 0.00 1.75 1.73 93 1001.1
20260905013055 17 264 0.0 4.8 0.00 1.75 1.73 93 1001.5
20260905011545 17 272 0.0 1.6 0.00 1.75 1.73 93 1001.6
20260905010050 17 230 0.0 1.6 0.00 1.75 1.73 93 1001.7
20260905004542 18 262 0.0 1.6 0.00 1.75 1.73 93 1002.0
20260905003041 18 302 0.0 6.4 0.00 1.75 1.73 93 1002.1
20260905001540 18 304 0.0 4.8 0.00 1.75 1.73 93 1002.2
20260905000040 18 273 0.0 3.2 0.00 1.75 1.73 93 1002.2
20260904234545 18 259 0.0 3.2 0.00 1.75 1.73 93 1002.2
20260904233039 18 262 0.0 8.0 0.00 1.75 1.73 93 1002.1
20260904231538 18 257 0.0 4.8 0.00 1.75 1.73 93 1002.1
20260904230038 18 302 0.0 1.6 0.00 1.75 1.73 93 1002.1
20260904224542 18 260 0.0 1.6 0.00 1.75 1.73 93 1002.1
20260904223036 19 266 0.0 1.6 0.00 1.75 1.73 93 1002.1
20260904221536 19 330 0.0 4.8 0.00 1.75 1.73 93 1002.1
20260904220055 19 268 3.2 11.3 0.00 1.75 1.73 93 1002.1
20260904214537 19 236 6.4 11.3 0.00 1.80 1.73 93 1002.1
20260904213034 19 260 4.8 12.9 0.00 1.80 1.73 93 1002.3
20260904211536 20 260 4.8 14.5 0.00 1.80 1.73 93 1002.4
20260904210040 20 240 8.0 17.7 0.00 1.80 1.73 92 1002.6